Hourly Data Report for May 15, 2020

TORONTO CITY
ONTARIO
Current Station Operator: ECCC - MSC

43°40'00.000" N
79°24'00.000" W
112.50 m
6158355
71508
XTO

Download Data

Hourly Data (May 2020)
Hourly Data Report for May 15, 2020
TIME
LST
Temp Definition
°C
Dew Point Definition
°C
Rel Hum Definition
%
Precip. Amount Definition
mm

Wind Dir Definition
10's deg

Wind Spd Definition
km/h
Visibility Definition
km
Stn Press Definition
kPa
Hmdx Definition


Wind Chill Definition


Weather Definition


00:00 9.2 7.2 88 0.0       99.88     LegendNANA
01:00 9.0 6.7 85 0.0       99.84     LegendNANA
02:00 8.9 6.2 84 0.0       99.81     LegendNANA
03:00 8.9 6.7 86 0.0       99.79     LegendNANA
04:00 9.4 7.5 88 0.0       99.78     LegendNANA
05:00 10.3 8.6 89 0.0       99.82     LegendNANA
06:00 10.2 8.5 89 0.6       99.77     LegendNANA
07:00 9.4 7.8 90 0.0       99.83     LegendNANA
08:00 9.9 8.5 91 1.7       99.78     LegendNANA
09:00 10.2 8.7 91 0.7       99.64     LegendNANA
10:00 11.3 9.8 91 0.6       99.58     LegendNANA
11:00 14.6 12.7 88 0.0       99.50     LegendNANA
12:00 17.3 14.2 82 0.0       99.45     LegendNANA
13:00 17.5 14.0 80 0.0       99.46     LegendNANA
14:00 18.2 15.3 83 1.0       99.46     LegendNANA
15:00 15.8 12.5 80 0.3       99.56     LegendNANA
16:00 15.6 11.9 78 0.0       99.64     LegendNANA
17:00 15.7 11.5 76 0.0       99.67     LegendNANA
18:00 15.6 10.3 71 0.0       99.79     LegendNANA
19:00 15.0 9.5 69 0.0       99.89     LegendNANA
20:00 13.7 8.8 72 0.0       99.99     LegendNANA
21:00 13.0 8.6 75 0.0       100.08     LegendNANA
22:00 12.3 8.4 77 0.0       100.14     LegendNANA
23:00 11.9 8.0 77 0.0       100.20     LegendNANA

Notes on Data Quality.

Legend

  • E = Estimated
  • M = Missing
  • NA = Not Available*
  • [empty] = Indicates an unobserved value
Date modified: